APCAB EGCC-EGLL

Flight info

Callsign APCAB
Flight time 0h 30m
Altitude 19000
Route LISTO L612 HON
Aircraft A321/M-SDE2E3FGHIRWY/L

Departure

Time 2026-05-06 23:34
Airport Manchester Airport (EGCC)

Arrival

Time 2026-05-07 00:04
Airport London Heathrow Airport (EGLL)
Time Latitude Longitude Altitude Speed Heading
2026-05-06 22:59 53.36165 -2.27702 248 ft 0 kts 15°
2026-05-06 23:18 53.36152 -2.27708 247 ft 4 kts 15°
2026-05-06 23:18 53.36126 -2.27719 247 ft 4 kts 15°
2026-05-06 23:19 53.36105 -2.27729 247 ft 4 kts 31°
2026-05-06 23:19 53.36091 -2.27758 247 ft 4 kts 86°
2026-05-06 23:19 53.36089 -2.27800 247 ft 4 kts 58°
2026-05-06 23:19 53.36075 -2.27833 247 ft 4 kts 71°
2026-05-06 23:20 53.36075 -2.27870 247 ft 4 kts 132°
2026-05-06 23:20 53.36088 -2.27890 247 ft 4 kts 144°
2026-05-06 23:20 53.36102 -2.27907 247 ft 0 kts 135°
2026-05-06 23:23 53.36100 -2.27905 247 ft 0 kts 135°
2026-05-06 23:23 53.36098 -2.27900 247 ft 3 kts 135°
2026-05-06 23:23 53.36050 -2.27885 247 ft 11 kts 205°
2026-05-06 23:24 53.35986 -2.27872 247 ft 10 kts 144°
2026-05-06 23:24 53.35928 -2.27843 247 ft 8 kts 182°
2026-05-06 23:24 53.35872 -2.27852 247 ft 8 kts 186°
2026-05-06 23:24 53.35819 -2.27862 247 ft 7 kts 186°
2026-05-06 23:25 53.35763 -2.27872 247 ft 12 kts 186°
2026-05-06 23:25 53.35668 -2.27888 247 ft 14 kts 186°
2026-05-06 23:25 53.35591 -2.27969 244 ft 15 kts 228°
2026-05-06 23:25 53.35513 -2.28103 239 ft 16 kts 212°
2026-05-06 23:26 53.35420 -2.28163 238 ft 13 kts 188°
2026-05-06 23:26 53.35337 -2.28186 237 ft 12 kts 199°
2026-05-06 23:26 53.35257 -2.28259 235 ft 15 kts 217°
2026-05-06 23:26 53.35181 -2.28406 235 ft 17 kts 232°
2026-05-06 23:27 53.35124 -2.28523 231 ft 10 kts 231°
2026-05-06 23:27 53.35089 -2.28596 235 ft 7 kts 231°
2026-05-06 23:27 53.35059 -2.28658 234 ft 9 kts 230°
2026-05-06 23:27 53.35012 -2.28748 231 ft 11 kts 229°
2026-05-06 23:28 53.34954 -2.28848 229 ft 12 kts 224°
2026-05-06 23:28 53.34887 -2.28965 224 ft 16 kts 229°
2026-05-06 23:28 53.34817 -2.29065 218 ft 1 kts 205°
2026-05-06 23:28 53.34784 -2.29074 220 ft 5 kts 171°
2026-05-06 23:29 53.34780 -2.29074 217 ft 0 kts 175°
2026-05-06 23:31 53.34775 -2.29073 217 ft 2 kts 174°
2026-05-06 23:32 53.34727 -2.29053 220 ft 11 kts 155°
2026-05-06 23:32 53.34677 -2.28964 217 ft 9 kts 100°
2026-05-06 23:32 53.34692 -2.28908 220 ft 3 kts 52°
2026-05-06 23:32 53.34696 -2.28899 220 ft 0 kts 52°
2026-05-06 23:33 53.34696 -2.28898 220 ft 1 kts 52°
2026-05-06 23:33 53.34764 -2.28758 229 ft 44 kts 50°
2026-05-06 23:33 53.35114 -2.28035 239 ft 113 kts 51°
2026-05-06 23:33 53.35722 -2.26778 321 ft 157 kts 51°
2026-05-06 23:34 53.36395 -2.25398 1011 ft 153 kts 49°
2026-05-06 23:34 53.37104 -2.24016 1510 ft 166 kts 50°
2026-05-06 23:34 53.37569 -2.22149 1774 ft 190 kts 91°
2026-05-06 23:34 53.37013 -2.20045 2011 ft 216 kts 136°
2026-05-06 23:35 53.35609 -2.18862 2320 ft 242 kts 162°
2026-05-06 23:35 53.33920 -2.18070 2929 ft 257 kts 164°
2026-05-06 23:35 53.32155 -2.17499 3840 ft 261 kts 174°
2026-05-06 23:35 53.30330 -2.17535 4759 ft 264 kts 182°
2026-05-06 23:36 53.28491 -2.17730 5630 ft 267 kts 184°
2026-05-06 23:36 53.26622 -2.17975 6485 ft 271 kts 184°
2026-05-06 23:36 53.24721 -2.18251 7285 ft 276 kts 185°
2026-05-06 23:36 53.22789 -2.18550 8078 ft 281 kts 186°
2026-05-06 23:37 53.20827 -2.18866 8867 ft 285 kts 186°
2026-05-06 23:37 53.18844 -2.19188 9665 ft 288 kts 186°
2026-05-06 23:37 53.16836 -2.19489 10378 ft 295 kts 184°
2026-05-06 23:37 53.14707 -2.19375 10591 ft 319 kts 174°
2026-05-06 23:38 53.12453 -2.18547 10744 ft 343 kts 163°
2026-05-06 23:38 53.10182 -2.17029 11075 ft 358 kts 158°
2026-05-06 23:38 53.07866 -2.15399 11682 ft 363 kts 158°
2026-05-06 23:38 53.05517 -2.13770 12331 ft 368 kts 158°
2026-05-06 23:39 53.03139 -2.12135 12985 ft 372 kts 159°
2026-05-06 23:39 53.00737 -2.10485 13626 ft 376 kts 159°
2026-05-06 23:39 52.98311 -2.08819 14246 ft 379 kts 159°
2026-05-06 23:39 52.95898 -2.07164 14831 ft 382 kts 159°
2026-05-06 23:40 52.93428 -2.05474 15414 ft 386 kts 159°
2026-05-06 23:40 52.90937 -2.03769 15980 ft 388 kts 159°
2026-05-06 23:40 52.88432 -2.02054 16528 ft 392 kts 159°
2026-05-06 23:40 52.85897 -2.00322 17064 ft 394 kts 159°
2026-05-06 23:41 52.83354 -1.98584 17575 ft 397 kts 159°
2026-05-06 23:41 52.80795 -1.96833 18044 ft 400 kts 159°
2026-05-06 23:41 52.78213 -1.95067 18501 ft 403 kts 159°
2026-05-06 23:41 52.75618 -1.93296 18929 ft 405 kts 159°
2026-05-06 23:42 52.73004 -1.91511 19054 ft 408 kts 159°
2026-05-06 23:42 52.70340 -1.89699 19089 ft 421 kts 159°
2026-05-06 23:42 52.67607 -1.87850 19082 ft 426 kts 159°
2026-05-06 23:42 52.64861 -1.85996 19083 ft 427 kts 159°
2026-05-06 23:43 52.62105 -1.84137 19079 ft 428 kts 159°
2026-05-06 23:43 52.59353 -1.82277 19082 ft 428 kts 159°
2026-05-06 23:43 52.56603 -1.80421 19082 ft 428 kts 159°
2026-05-06 23:43 52.53851 -1.78566 19082 ft 428 kts 159°
2026-05-06 23:44 52.51099 -1.76712 19082 ft 428 kts 159°
2026-05-06 23:44 52.48340 -1.74857 19081 ft 428 kts 159°
2026-05-06 23:44 52.45581 -1.73008 19082 ft 428 kts 159°
2026-05-06 23:44 52.42858 -1.71184 19081 ft 428 kts 159°
2026-05-06 23:45 52.40071 -1.69318 19080 ft 428 kts 159°
2026-05-06 23:45 52.37365 -1.67438 19070 ft 428 kts 155°
2026-05-06 23:45 52.34814 -1.64991 18838 ft 423 kts 145°
2026-05-06 23:45 52.32544 -1.61951 18585 ft 421 kts 139°
2026-05-06 23:46 52.30344 -1.58810 18330 ft 419 kts 140°
2026-05-06 23:46 52.28144 -1.55698 18090 ft 418 kts 140°
2026-05-06 23:46 52.25946 -1.52613 17834 ft 416 kts 140°
2026-05-06 23:46 52.23751 -1.49549 17583 ft 415 kts 140°
2026-05-06 23:47 52.21557 -1.46491 17333 ft 413 kts 140°
2026-05-06 23:47 52.19372 -1.43446 17084 ft 412 kts 140°
2026-05-06 23:47 52.17200 -1.40414 16831 ft 411 kts 140°
2026-05-06 23:47 52.15036 -1.37390 16581 ft 409 kts 140°
2026-05-06 23:48 52.12889 -1.34392 16328 ft 399 kts 140°
2026-05-06 23:48 52.10820 -1.31504 16073 ft 384 kts 140°
2026-05-06 23:48 52.08831 -1.28727 15823 ft 370 kts 140°
2026-05-06 23:48 52.06908 -1.26049 15578 ft 358 kts 140°
2026-05-06 23:49 52.05043 -1.23464 15327 ft 347 kts 140°
2026-05-06 23:49 52.03234 -1.20961 15076 ft 336 kts 140°
2026-05-06 23:49 52.01482 -1.18539 14914 ft 323 kts 140°
2026-05-06 23:49 51.99853 -1.16287 15032 ft 302 kts 140°
2026-05-06 23:50 51.98296 -1.14136 15060 ft 287 kts 140°
2026-05-06 23:50 51.95278 -1.09970 15004 ft 285 kts 140°
2026-05-06 23:50 51.93756 -1.07872 14585 ft 287 kts 140°
2026-05-06 23:51 51.92224 -1.05761 14211 ft 285 kts 140°
2026-05-06 23:51 51.90738 -1.03718 13840 ft 284 kts 140°
2026-05-06 23:51 51.89241 -1.01662 13520 ft 281 kts 140°
2026-05-06 23:51 51.87744 -0.99609 13144 ft 280 kts 140°
2026-05-06 23:52 51.86264 -0.97571 12762 ft 279 kts 138°
2026-05-06 23:52 51.85009 -0.95203 12373 ft 278 kts 121°
2026-05-06 23:52 51.84136 -0.92440 12015 ft 276 kts 115°
2026-05-06 23:52 51.83304 -0.89664 11684 ft 273 kts 116°
2026-05-06 23:53 51.82461 -0.86912 11298 ft 272 kts 116°
2026-05-06 23:53 51.81622 -0.84194 10912 ft 271 kts 116°
2026-05-06 23:53 51.80786 -0.81484 10597 ft 267 kts 116°
2026-05-06 23:53 51.79957 -0.78788 10206 ft 266 kts 116°
2026-05-06 23:54 51.79139 -0.76125 9821 ft 265 kts 116°
2026-05-06 23:54 51.78322 -0.73473 9488 ft 262 kts 116°
2026-05-06 23:54 51.77510 -0.70841 9061 ft 259 kts 116°
2026-05-06 23:54 51.76714 -0.68263 8701 ft 255 kts 116°
2026-05-06 23:55 51.75939 -0.65748 8360 ft 253 kts 116°
2026-05-06 23:55 51.75161 -0.63222 8018 ft 252 kts 116°
2026-05-06 23:55 51.74383 -0.60701 7678 ft 250 kts 116°
2026-05-06 23:55 51.73468 -0.58330 7339 ft 249 kts 135°
2026-05-06 23:56 51.72004 -0.56941 7001 ft 246 kts 167°
2026-05-06 23:56 51.70320 -0.56947 6708 ft 243 kts 198°
2026-05-06 23:56 51.68781 -0.58056 6418 ft 244 kts 208°
2026-05-06 23:56 51.67265 -0.59290 6078 ft 244 kts 208°
2026-05-06 23:57 51.65760 -0.60518 5773 ft 242 kts 207°
2026-05-06 23:57 51.64259 -0.61738 5474 ft 241 kts 207°
2026-05-06 23:57 51.62761 -0.62950 5179 ft 241 kts 207°
2026-05-06 23:57 51.61263 -0.64163 4878 ft 241 kts 207°
2026-05-06 23:58 51.59770 -0.65374 4584 ft 240 kts 207°
2026-05-06 23:58 51.58284 -0.66574 4295 ft 238 kts 207°
2026-05-06 23:58 51.56805 -0.67765 3987 ft 236 kts 206°
2026-05-06 23:58 51.55341 -0.68941 3712 ft 234 kts 206°
2026-05-06 23:59 51.53890 -0.70105 3422 ft 232 kts 206°
2026-05-06 23:59 51.52484 -0.71234 3257 ft 223 kts 206°
2026-05-06 23:59 51.51107 -0.72309 3157 ft 214 kts 199°
2026-05-06 23:59 51.49686 -0.72525 3059 ft 208 kts 165°
2026-05-07 00:00 51.48439 -0.71508 2908 ft 199 kts 134°
2026-05-07 00:00 51.47743 -0.69700 2646 ft 186 kts 103°
2026-05-07 00:00 51.47650 -0.67698 2416 ft 177 kts 87°
2026-05-07 00:00 51.47659 -0.66382 2259 ft 172 kts 87°
2026-05-07 00:01 51.47674 -0.63946 1976 ft 159 kts 87°
2026-05-07 00:01 51.47683 -0.62251 1776 ft 146 kts 87°
2026-05-07 00:01 51.47691 -0.60655 1583 ft 141 kts 87°
2026-05-07 00:01 51.47699 -0.59091 1404 ft 140 kts 88°
2026-05-07 00:02 51.47707 -0.57539 1213 ft 139 kts 88°
2026-05-07 00:02 51.47715 -0.55991 1031 ft 139 kts 88°
2026-05-07 00:02 51.47722 -0.54447 839 ft 138 kts 88°
2026-05-07 00:02 51.47727 -0.52907 668 ft 138 kts 88°
2026-05-07 00:03 51.47725 -0.51370 479 ft 138 kts 88°
2026-05-07 00:03 51.47737 -0.49854 307 ft 137 kts 88°
2026-05-07 00:03 51.47752 -0.48307 134 ft 137 kts 88°
2026-05-07 00:03 51.47759 -0.46844 88 ft 114 kts 90°
2026-05-07 00:04 51.47760 -0.45898 84 ft 62 kts 89°
2026-05-07 00:04 51.47760 -0.45585 86 ft 11 kts 91°
2026-05-07 00:04 51.47718 -0.45471 87 ft 17 kts 162°
2026-05-07 00:04 51.47659 -0.45465 89 ft 2 kts 186°
2026-05-07 00:05 51.47651 -0.45467 88 ft 1 kts 186°
2026-05-07 00:05 51.47643 -0.45467 86 ft 1 kts 182°
2026-05-07 00:05 51.47611 -0.45468 90 ft 11 kts 181°
2026-05-07 00:05 51.47541 -0.45471 86 ft 8 kts 198°
2026-05-07 00:06 51.47512 -0.45533 86 ft 7 kts 260°
2026-05-07 00:06 51.47508 -0.45612 89 ft 8 kts 268°
2026-05-07 00:06 51.47509 -0.45695 88 ft 7 kts 275°
2026-05-07 00:06 51.47514 -0.45774 86 ft 7 kts 277°
2026-05-07 00:07 51.47518 -0.45850 86 ft 7 kts 270°
2026-05-07 00:07 51.47517 -0.45922 86 ft 6 kts 269°
2026-05-07 00:07 51.47517 -0.45989 86 ft 6 kts 270°
2026-05-07 00:07 51.47517 -0.46058 89 ft 6 kts 270°
2026-05-07 00:08 51.47517 -0.46131 86 ft 7 kts 270°
2026-05-07 00:08 51.47517 -0.46207 86 ft 7 kts 270°
2026-05-07 00:08 51.47517 -0.46280 88 ft 6 kts 269°
2026-05-07 00:08 51.47516 -0.46350 90 ft 6 kts 269°
2026-05-07 00:09 51.47515 -0.46418 90 ft 6 kts 268°
2026-05-07 00:09 51.47515 -0.46484 86 ft 6 kts 270°
2026-05-07 00:09 51.47503 -0.46528 90 ft 4 kts 207°
2026-05-07 00:09 51.47481 -0.46531 89 ft 3 kts 178°
2026-05-07 00:10 51.47460 -0.46522 86 ft 4 kts 167°
2026-05-07 00:10 51.47439 -0.46513 86 ft 2 kts 165°
2026-05-07 00:10 51.47430 -0.46509 86 ft 2 kts 165°
2026-05-07 00:10 51.47428 -0.46508 88 ft 0 kts 165°
2026-05-07 00:11 51.47429 -0.46508 86 ft 0 kts 165°